Regional Weather Roundup
Issued by NWS State College, PA

Home | Current Version | Previous Version | Graphics & Text | Print | Product List | Glossary Off
Versions: 1 2 3 4 5 6 7 8 9 10 11 12 13 14 15 16 17 18 19 20 21 22 23 24 25 26 27 28 29 30 31 32 33 34 35 36 37 38 39 40 41 42 43 44 45 46 47 48 49 50

000
ASUS41 KCTP 120803
RWRCTP

REGIONAL WEATHER ROUNDUP
NATIONAL WEATHER SERVICE STATE COLLEGE PA
300 AM EST TUE DEC 12 2017

Note: "fair" indicates few or no clouds below 12,000 feet with no
significant weather and/or obstructions to visibility.

* = STATION THAT DOES NOT REPORT PRECIPITATION /E.G. RAIN...SNOW...ETC/
    THUNDER OR FOG.

PAZ002>004-007>009-013>016-020>023-029>032-120900-
WESTERN PENNSYLVANIA

CITY           SKY/WX    TMP DP  RH WIND       PRES   REMARKS
ERIE           LGT SNOW  30  29  96 S6        29.57F VSB 3/4
MEADVILLE      LGT SNOW  29  28  96 CALM      29.53F FOG
FRANKLIN*      MIX PCPN  30  23  75 NE3       29.53F
NEW CASTLE     CLOUDY    33  24  69 CALM      29.55F
BEAVER COUNTY  NOT AVBL
BUTLER*        LGT RAIN  37  30  75 SW15G26   29.55S
PITTSBURGH INT CLOUDY    43  26  51 SW13      29.54F
PITTSBURGH     CLOUDY    38  23  55 SW8       29.55S
INDIANA*       CLOUDY    41  27  56 SW9       29.58S
LATROBE        LGT RAIN  43  32  65 SW13G21   29.57S
WASHINGTON CO* CLOUDY    42  26  53 SW16G25   29.60R
$$

PAZ004>006-010>012-017>019-024>028-033>037-041-042-045-046-049>053-120900-
CENTRAL PENNSYLVANIA

CITY           SKY/WX    TMP DP  RH WIND       PRES   REMARKS
BRADFORD       LGT SNOW  30  28  92 SE6       29.52F FOG
DUBOIS         CLOUDY    34  22  61 SE5       29.51F
CLEARFIELD     CLOUDY    33  23  66 NE7       29.55F
JOHNSTOWN      CLOUDY    38  24  57 S8        29.53F
ALTOONA        MOCLDY    37  25  61 S8        29.59F
STATE COLLEGE  CLOUDY    36  25  63 S3        29.61F
WILLIAMSPORT   CLOUDY    39  26  59 NE10G17   29.67F
SELINSGROVE    CLOUDY    38  28  67 S7        29.69F
FT INDIANTOWN  CLOUDY    34  29  82 NE3       29.72F
CAPITAL CITY   CLOUDY    37  28  70 E7        29.70F
HARRISBURG     CLOUDY    37  30  75 SE8       29.70F
YORK           CLOUDY    39  31  72 SE7       29.69F
$$

PAZ038>040-043-044-047-048-054-055-060>062-067>071-120900-
EASTERN PENNSYLVANIA

CITY           SKY/WX    TMP DP  RH WIND       PRES   REMARKS
SCRANTON       CLOUDY    35  24  64 N3        29.69F
MOUNT POCONO   CLOUDY    28  22  78 SE13G18   29.70F
ALLENTOWN      CLOUDY    37  25  61 SE6       29.78F
QUAKERTOWN*    CLOUDY    36  27  69 CALM      29.79F
READING        PTCLDY    37  28  70 SE12      29.74F
LANCASTER      CLOUDY    37  30  75 E8        29.73F
COATESVILLE    CLOUDY    36  28  75 SE6       29.76F
POTTSTOWN      CLOUDY    34  26  72 E3        29.79F
BLUE BELL      CLOUDY    34  28  80 CALM      29.79F
DOYLESTOWN     CLOUDY    34  25  69 SE5       29.78F
WILLOW GROVE   NOT AVBL
NORTH PHILA    MOCLDY    36  27  69 SE6       29.82F
PHILADELPHIA   CLOUDY    37  30  75 E5        29.80F
$$




USA.gov is the U.S. government's official web portal to all federal, state and local government web resources and services.